Content
SEND FEEDBACK

Daily
Averages
Monthly
Summary
United States of America

CHATTANOOGA, OKLAHOMA


Home > North America > United States > Oklahoma
Elevation: 1140 feet     Latitude: 34 23N     Longitude: 098 41W

WEATHER
 
SELECT A DAY
Number of Records: 186,076;   Date Range: 1/1/95 - 12/21/14
 
SHARE

PRINT THIS DATA

[ ← Previous Day ]
WEATHER ALMANAC - JANUARY 23, 2013
[ Next Day → ]
[ °C ]   °F
Weather ElementAverageHighLow
Temperature42.2 °F69.1 °F (4:53 pm)28.4 °F (8:01 am)
Dewpoint37.6 °F51.1 °F (2:53 pm)26.6 °F (8:01 am)
Humidity85.4 %100 % (8:20 am)53 % (4:53 pm)
Barometer30.18 in30.25 in (10:53 am)30.09 in (4:53 pm)
Wind Speed2.8 mph9.2 mph (9:53 am)
Weather ElementAverage
Visibility4.9 mi
Wind DirectionE (89.5 °)

Weather ElementTotal
Precipitation---
Heating Degree Days16.3 (Base 65)
Averaged from 37 records on January 23, 2013
WEATHER CONDITIONS BREAKOUT
WIND DIRECTION BREAKOUT
WEATHER BY HOUR - JANUARY 23, 2013
[ °C ]   °F
Local TimeTemperatureDewpointHumidityBarometerVisibilityWind DirectionWind SpeedGust SpeedPrecipitationEventsConditions
1:53 AM35.1 °F32.0 °F89 %30.19 in6.0 miCalmClear
2:53 AM32.0 °F28.9 °F88 %30.20 in6.0 miCalmClear
3:53 AM30.9 °F28.0 °F89 %30.19 in8.0 miCalmClear
4:53 AM30.0 °F27.0 °F88 %30.19 in7.0 miCalmClear
5:53 AM30.0 °F27.0 °F88 %30.19 in4.0 miCalmClear
6:53 AM30.0 °F28.0 °F92 %30.22 in3.0 miNorth (350°)4.6 mphClear
7:02 AM32.0 °F28.4 °F87 %30.20 in3.0 miNNE (20°)5.8 mphPartly Cloudy
7:14 AM32.0 °F30.2 °F93 %30.19 in2.0 miCalmScattered Clouds
7:29 AM30.2 °F28.4 °F93 %30.20 in1.0 miCalmMist
7:35 AM30.2 °F28.4 °F93 %30.20 in0.8 miCalmClear
7:42 AM30.2 °F28.4 °F93 %30.20 in2.0 miCalmClear
7:50 AM30.2 °F28.4 °F93 %30.21 in1.8 miCalmPartly Cloudy
7:53 AM30.0 °F28.9 °F96 %30.23 in1.5 miCalmScattered Clouds
8:01 AM28.4 °F26.6 °F93 %30.20 in2.0 miCalmMostly Cloudy
8:12 AM30.2 °F28.4 °F93 %30.20 in0.8 miCalmOvercast
8:20 AM30.2 °F30.2 °F100 %30.21 in0.2 miCalmFogLight Freezing Fog
8:53 AM34.0 °F34.0 °F100 %30.24 in0.2 miCalmFogFog
9:35 AM41.0 °F39.2 °F93 %30.22 in1.0 miSouth (170°)4.6 mphMist
9:42 AM42.8 °F41.0 °F93 %30.22 in2.5 miSouth (170°)4.6 mphScattered Clouds
9:51 AM44.6 °F42.8 °F93 %30.22 in4.0 miSouth (190°)5.8 mphPartly Cloudy
9:53 AM45.0 °F43.0 °F93 %30.24 in5.0 miSouth (190°)9.2 mphPartly Cloudy
10:33 AM48.2 °F44.6 °F87 %30.22 in3.0 miSW (220°)5.8 mphMostly Cloudy
10:53 AM48.0 °F46.0 °F93 %30.25 in3.0 miVariable3.5 mphOvercast
11:30 AM51.8 °F46.4 °F82 %30.23 in5.0 miSSW (210°)5.8 mphOvercast
11:53 AM53.1 °F46.9 °F80 %30.22 in7.0 miSW (230°)8.1 mphPartly Cloudy
12:53 PM57.9 °F46.9 °F67 %30.18 in10.0 miSW (230°)6.9 mphClear
1:53 PM63.0 °F48.0 °F58 %30.15 in10.0 miSSW (200°)9.2 mphClear
2:53 PM66.0 °F51.1 °F59 %30.14 in10.0 miSSW (200°)8.1 mphClear
3:53 PM66.9 °F51.1 °F57 %30.12 in10.0 miSSW (200°)6.9 mphClear
4:53 PM69.1 °F51.1 °F53 %30.09 in10.0 miSouth (190°)9.2 mphClear
5:53 PM62.1 °F50.0 °F65 %30.10 in10.0 miSSW (200°)3.5 mphClear
6:53 PM54.0 °F48.0 °F80 %30.12 in10.0 miNNW (340°)3.5 mphClear
7:53 PM48.9 °F44.1 °F83 %30.14 in8.0 miCalmClear
8:53 PM46.9 °F42.1 °F83 %30.14 in8.0 miCalmClear
9:53 PM45.0 °F42.1 °F90 %30.12 in7.0 miCalmClear
10:53 PM43.0 °F41.0 °F93 %30.12 in5.0 miCalmClear
11:53 PM39.0 °F36.0 °F89 %30.13 in4.0 miCalmClear
Hourly data recorded from KLAW, located miles away from Chattanooga, Oklahoma







STORIES FROM OUR PARTNERS